Погода в Невдольске

Россия / Брянская область     52°18′09″N   34°17′00″E
темп.,
°C
ветер,
м/с
пор.,
м/с
влажн.,
%
обл.,
%
осадки,
мм/ч
давл.,
гПа
погр.,
м
12 мая, ср
ср1200:00+7в411850 0.0 1023294
03:00+5в412930 0.0 1023403
06:00+6в411918 0.0 1023357
09:00+11в711695 0.0 1023960
12:00+14в6860100 0.0 10201581
15:00+14всв6860100 0.3 10191470
18:00+13всв577127 0.7 10171102
21:00+9вюв41094100 1.9 1016501
13 мая, чт
чт1300:00+7всв399711 0.1 1014233
03:00+8вюв499581 1.8 1014445
06:00+7юв5119668 0.4 1014472
09:00+8ююв6985100 0.4 1015796
12:00+12ю576671 0.2 10141346
15:00+13ю4669100 0.3 10141024
18:00+14ююв356854 0.0 10141142
21:00+9вюв348299 0.0 101450
14 мая, пт
пт1400:00+9юв3584100 0.0 101487
03:00+10вюв4982100 0.0 1014166
06:00+11в41095100 0.8 1013229
09:00+15вюв61188100 2.4 1012529
12:00+20ююв6972100 0.6 10101255
15:00+21ю796816 1.8 10091367
18:00+20ю487898 1.3 1009573
21:00+15ю349148 2.5 100949
15 мая, сб
сб1500:00+14ююз229196 0.0 100922
03:00+13ююв229099 0.0 100927
06:00+13ююз369320 0.0 1009138
09:00+17юз358117 0.1 1009531
12:00+19юз566712 1.6 10101187
15:00+19зюз566865 3.8 10101248
18:00+17з588140 1.7 1011772
21:00+12зюз34905 1.8 101262
16 мая, вс
вс1600:00+10юз33890 0.0 101341
03:00+10юз34900 0.0 101457
06:00+10ююз24890 0.0 101568
09:00+16зюз22740 0.0 1016432
12:00+19юз225927 0.0 10161327
15:00+21в1152100 0.0 10151485
18:00+20в246694 0.0 1014450
21:00+15в348493 0.0 101546